Terminal Aerodrome Forecast
Issued by NWS

Home | Current Version | Previous Version | Text Only | Print | Product List | Glossary On
Versions: 1 2 3 4 5 6 7 8 9 10 11 12 13 14 15 16 17 18 19
000
FTUS45 KRIW 301333 AAA
TAFLND
TAF AMD
KLND 301333Z 3014/0112 30005KT 4SM -SN SCT007 OVC015
      TEMPO 3014/3016 1SM -SN BR
     FM302000 05007KT 5SM -SNRA OVC010
     FM010400 VRB05KT P6SM VCSH OVC012=

USA.gov is the U.S. government's official web portal to all federal, state and local government web resources and services.